[[{"header":{"parameterUnit":"m.s-1","parameterCategory":1,"la1":30.2991,"la2":30.254,"lo1":-89.0895,"lo2":-89.0444,"dx":0.0017,"dy":0.0017,"nx":28,"ny":28,"refTime":"2022-12-30T15:00:00:Z","depth":0,"parameterNumber":2,"parameterNumberName":"U-component_of_WINDS"},"data":[0,0,0,0,0,0,0,0,0,0,0,0,0,0,0,0,0,0,0,0,0,0,0,0,0,0,0,0,0,0,0,0,0,0,0,0,0,0,0,0,0,0,0,0,0,0,0,0,0,0,0,0,0,0,0,0,0,0,1.0945,1.0946,0,1.1014,1.1015,1.1016,1.1043,1.1042,1.1042,1.1042,1.1114,1.1116,1.1118,0,0,0,0,0,0,0,0,0,0,0,0,0,1.0835,1.0837,1.0945,1.0946,1.0946,1.1014,1.1015,1.1016,1.1043,1.1042,1.1042,1.1042,1.1113,1.1116,1.1118,0,0,0,0,0,0,0,0,0,0,0,0,0,1.0891,1.0837,1.0945,1.0968,1.0971,1.1014,1.1015,1.1016,1.1043,1.1042,1.1042,1.1042,1.1112,1.1116,1.1119,1.1144,0,0,1.1128,1.113,0,0,0,0,0,0,0,0,1.0888,1.0895,1.0964,1.0966,1.097,1.102,1.1003,1.1059,1.1043,1.1015,1.1042,1.1042,1.1083,1.1088,1.1102,1.1148,1.1151,1.1129,1.1131,1.1132,1.1133,0,0,0,0,0,0,0,1.0884,1.0893,1.0972,1.0965,1.0968,1.0975,1.0983,1.1014,1.105,1.1018,1.102,1.1028,1.1084,1.1099,1.1104,1.1152,1.1129,1.1131,1.1133,1.1135,1.1222,1.1222,0,0,0,0,0,0,1.0876,1.0889,1.097,1.0974,1.0927,1.0977,1.0986,1.1004,1.105,1.1056,1.1028,1.1029,1.1094,1.11,1.1107,1.114,1.1132,1.1135,1.1137,1.1221,1.1222,1.1222,0,0,0,0,0,0,1.0874,1.0883,1.0967,1.0932,1.0944,1.0979,1.0999,1.1005,1.102,1.1057,1.1064,1.1036,1.1094,1.1102,1.1135,1.1142,1.1136,1.1139,1.1221,1.1221,1.1222,1.1205,0,0,0,0,0,0,1.0871,1.0882,1.0892,1.0932,1.0945,1.0994,1.1,1.1007,1.1025,1.1027,1.1067,1.1073,1.1094,1.113,1.1138,1.1147,1.1142,1.122,1.1221,1.1222,1.1205,1.1205,1.1205,0,0,0,0,0,1.0867,1.0885,1.0893,1.0902,1.0959,1.0994,1.1002,1.1025,1.1026,1.1036,1.106,1.1072,1.114,1.1133,1.1142,1.1152,1.122,1.1221,1.1222,1.1205,1.1205,1.1205,0,0,0,0,0,0,1.0845,1.0891,1.09,1.0932,1.0959,1.0999,1.1013,1.1025,1.1052,1.1053,1.1081,1.109,1.112,1.1139,1.113,1.1179,1.1181,1.1184,1.1165,1.1166,1.1165,1.116,1.1144,0,0,0,0,0,1.0844,1.0869,1.0908,1.0932,1.0946,1.0977,1.0993,1.1009,1.1038,1.105,1.1076,1.1105,1.1132,1.115,1.1178,1.1208,1.1217,1.122,1.122,1.1219,1.1221,1.1239,1.124,1.1225,1.1225,1.1225,0,0,1.0843,1.0871,1.0885,1.0929,1.0952,1.0977,1.0986,1.1013,1.1032,1.1054,1.1086,1.1106,1.114,1.1171,1.1186,1.1188,1.1228,1.1221,1.122,1.1222,1.124,1.1241,1.1242,1.1226,1.1226,1.1226,0,0,1.0852,1.0876,1.0899,1.0921,1.0956,1.0976,1.0982,1.102,1.1034,1.1067,1.1084,1.1107,1.1154,1.1177,1.1195,1.1213,1.1225,1.1221,1.1221,1.1238,1.1239,1.124,1.1246,1.1248,1.1223,1.1223,1.1223,0,1.0846,1.0884,1.0909,1.0935,1.0953,1.0974,1.0998,1.1019,1.106,1.1073,1.1074,1.1134,1.1158,1.1195,1.1199,1.1213,1.122,1.1217,1.1237,1.1238,1.1239,1.1246,1.1248,1.1223,1.1223,1.1223,1.1223,0,1.0874,1.0901,1.0915,1.0955,1.0975,1.1,1.1028,1.1046,1.106,1.108,1.1113,1.1142,1.1176,1.1186,1.12,1.1225,1.1225,1.1231,1.1233,1.124,1.1246,1.1249,1.1222,1.1222,1.1222,1.1222,0,0,1.0873,1.0925,1.093,1.0948,1.0987,1.1009,1.1034,1.1067,1.1081,1.1109,1.1131,1.117,1.1176,1.1196,1.1213,1.1228,1.124,1.1232,1.1233,1.1232,1.1268,1.1263,1.1266,1.1248,1.1248,1.1249,1.1265,0,1.0887,1.0933,1.0956,1.0992,1.1016,1.1037,1.1058,1.1085,1.1105,1.1128,1.115,1.1178,1.1184,1.1196,1.1211,1.1235,1.1247,1.1234,1.1268,1.1269,1.1259,1.1269,1.1264,1.1278,1.1268,1.1269,1.1269,0,1.091,1.0938,1.0976,1.1012,1.1024,1.1043,1.1075,1.1097,1.1128,1.1141,1.1163,1.118,1.1207,1.1207,1.1245,1.1235,1.1251,1.1264,1.1266,1.127,1.1269,1.1273,1.1283,1.1285,1.1273,1.1273,1.1272,0,1.0905,1.0952,1.098,1.0995,1.1038,1.1051,1.107,1.11,1.1118,1.1146,1.1158,1.1189,1.1205,1.1229,1.1253,1.1251,1.1288,1.1291,1.13,1.1299,1.1307,1.1306,1.132,1.1317,1.1317,1.1317,1.1317,0,1.0919,1.0941,1.0978,1.0996,1.1022,1.1048,1.1072,1.1093,1.1119,1.1141,1.1161,1.1181,1.1212,1.1236,1.1255,1.1283,1.1291,1.1302,1.1307,1.13,1.1299,1.1311,1.131,1.1318,1.1317,1.1317,1.1317,0,1.0917,1.0942,1.0975,1.1013,1.1023,1.104,1.1073,1.1091,1.1111,1.1139,1.1147,1.1179,1.1209,1.1235,1.1274,1.1287,1.1315,1.1322,1.1305,1.1308,1.1315,1.1314,1.1337,1.1341,1.1335,1.1336,1.1336,0,1.0924,1.0941,1.0981,1.0997,1.1015,1.1041,1.1059,1.1086,1.1104,1.114,1.1153,1.1184,1.121,1.1256,1.1283,1.1313,1.132,1.1326,1.1324,1.1317,1.132,1.1318,1.132,1.1325,1.1325,1.1325,1.1325,0,1.0933,1.0945,1.0971,1.1001,1.1023,1.1048,1.1074,1.1086,1.1117,1.1136,1.1167,1.1187,1.1226,1.1256,1.1289,1.1308,1.1322,1.1325,1.1329,1.1322,1.1312,1.1317,1.1304,1.1325,1.1325,1.1325,1.1325,1.1325,1.0936,1.0952,1.0983,1.1011,1.1033,1.1057,1.1075,1.1098,1.1123,1.1157,1.1171,1.1202,1.1232,1.1277,1.1296,1.1321,1.1323,1.1329,1.133,1.1331,1.133,1.1308,1.1327,1.1327,1.1327,1.1327,1.1327,0,1.0946,1.0967,1.0992,1.1027,1.1049,1.106,1.1089,1.1107,1.1133,1.116,1.1185,1.1219,1.1249,1.1278,1.1309,1.1322,1.1329,1.133,1.1329,1.1333,1.1326,1.1319,1.1324,1.1324,1.1324,1.1324,1.1324,1.1324,1.0954,1.0982,1.0998,1.1037,1.1058,1.1088,1.1103,1.1125,1.1147,1.1184,1.1208,1.1227,1.1255,1.1288,1.1315,1.1323,1.1333,1.1332,1.1341,1.1334,1.1334,1.1334,1.1328,1.1334,1.1334,1.1347,1.1347,1.1347]},{"header":{"parameterUnit":"m.s-1","parameterCategory":1,"la1":30.2991,"la2":30.254,"lo1":-89.0895,"lo2":-89.0444,"dx":0.0017,"dy":0.0017,"nx":28,"ny":28,"refTime":"2022-12-30T15:00:00:Z","depth":0,"parameterNumber":3,"parameterNumberName":"V-component_of_WINDS"},"data":[0,0,0,0,0,0,0,0,0,0,0,0,0,0,0,0,0,0,0,0,0,0,0,0,0,0,0,0,0,0,0,0,0,0,0,0,0,0,0,0,0,0,0,0,0,0,0,0,0,0,0,0,0,0,0,0,0,0,-0.0208,-0.0207,0,-0.018,-0.018,-0.018,-0.0137,-0.0136,-0.0135,-0.0134,-0.0108,-0.0108,-0.0108,0,0,0,0,0,0,0,0,0,0,0,0,0,-0.0226,-0.0226,-0.0208,-0.0207,-0.0207,-0.018,-0.018,-0.0179,-0.0137,-0.0136,-0.0135,-0.0134,-0.0108,-0.0108,-0.0108,0,0,0,0,0,0,0,0,0,0,0,0,0,-0.021,-0.0226,-0.0208,-0.0182,-0.018,-0.018,-0.018,-0.0179,-0.0137,-0.0136,-0.0135,-0.0134,-0.0108,-0.0108,-0.0108,-0.0131,0,0,-0.0108,-0.0108,0,0,0,0,0,0,0,0,-0.0211,-0.0209,-0.0187,-0.0184,-0.0181,-0.0161,-0.0176,-0.0163,-0.0137,-0.0153,-0.0134,-0.0133,-0.0126,-0.0125,-0.0122,-0.013,-0.0129,-0.0108,-0.0108,-0.0108,-0.0108,0,0,0,0,0,0,0,-0.0212,-0.021,-0.0197,-0.0186,-0.0183,-0.0173,-0.017,-0.0174,-0.0147,-0.0152,-0.0149,-0.0146,-0.0125,-0.0122,-0.0121,-0.0128,-0.0108,-0.0108,-0.0108,-0.0108,-0.0155,-0.0157,0,0,0,0,0,0,-0.0217,-0.0212,-0.0198,-0.0196,-0.0194,-0.0174,-0.017,-0.0168,-0.0147,-0.0142,-0.0147,-0.0144,-0.0123,-0.0121,-0.012,-0.0147,-0.0108,-0.0108,-0.0108,-0.0154,-0.0156,-0.0157,0,0,0,0,0,0,-0.0217,-0.0216,-0.0199,-0.0203,-0.02,-0.0175,-0.0174,-0.0169,-0.0166,-0.0143,-0.0138,-0.0149,-0.0122,-0.012,-0.0129,-0.0145,-0.0108,-0.0108,-0.0153,-0.0155,-0.0156,-0.02,0,0,0,0,0,0,-0.0218,-0.0216,-0.0224,-0.0203,-0.02,-0.0207,-0.0174,-0.0169,-0.0166,-0.0162,-0.0144,-0.014,-0.0121,-0.0129,-0.0129,-0.0145,-0.0108,-0.0151,-0.0154,-0.0156,-0.0197,-0.0203,-0.0209,0,0,0,0,0,-0.0219,-0.0238,-0.0225,-0.0223,-0.0209,-0.0208,-0.0207,-0.0184,-0.0167,-0.0176,-0.0161,-0.014,-0.0144,-0.013,-0.013,-0.0146,-0.015,-0.0153,-0.0156,-0.0195,-0.0202,-0.0209,0,0,0,0,0,0,-0.0261,-0.0235,-0.022,-0.0233,-0.0223,-0.0201,-0.0211,-0.0193,-0.0188,-0.0184,-0.0157,-0.0154,-0.0166,-0.0157,-0.0143,-0.0168,-0.0144,-0.0147,-0.0174,-0.0181,-0.0186,-0.0188,-0.0108,0,0,0,0,0,-0.0272,-0.0273,-0.025,-0.0264,-0.0259,-0.0236,-0.0235,-0.0219,-0.0208,-0.0204,-0.0189,-0.018,-0.018,-0.0179,-0.0177,-0.0196,-0.0192,-0.0207,-0.0212,-0.0217,-0.022,-0.023,-0.0237,-0.0166,-0.0166,-0.0166,0,0,-0.0295,-0.028,-0.0283,-0.0272,-0.0262,-0.0265,-0.0233,-0.0237,-0.0238,-0.0204,-0.0212,-0.0201,-0.019,-0.0204,-0.0209,-0.0196,-0.0239,-0.0221,-0.0225,-0.0225,-0.0234,-0.0241,-0.0247,-0.0168,-0.0168,-0.0168,0,0,-0.0337,-0.0326,-0.0336,-0.0328,-0.0314,-0.0299,-0.0302,-0.0282,-0.0274,-0.0281,-0.0256,-0.0258,-0.0257,-0.025,-0.0246,-0.0287,-0.0268,-0.0287,-0.0317,-0.0328,-0.0333,-0.0338,-0.0354,-0.0359,-0.029,-0.029,-0.029,0,-0.0367,-0.0369,-0.0344,-0.035,-0.0346,-0.0315,-0.0327,-0.032,-0.0306,-0.0305,-0.0291,-0.0289,-0.0279,-0.0291,-0.0302,-0.0299,-0.0302,-0.0289,-0.0334,-0.0339,-0.0343,-0.0358,-0.0363,-0.0293,-0.0293,-0.0292,-0.0292,0,-0.0407,-0.0409,-0.0419,-0.0407,-0.0404,-0.0413,-0.039,-0.0391,-0.0375,-0.0362,-0.037,-0.0357,-0.0352,-0.0354,-0.0338,-0.0364,-0.0357,-0.0339,-0.0314,-0.0353,-0.0366,-0.0371,-0.0296,-0.0295,-0.0295,-0.0294,0,0,-0.0475,-0.0449,-0.0454,-0.0448,-0.0431,-0.0433,-0.044,-0.0435,-0.0437,-0.0429,-0.0435,-0.0435,-0.0419,-0.0415,-0.0398,-0.0407,-0.0442,-0.0388,-0.0388,-0.0399,-0.0471,-0.0486,-0.0492,-0.043,-0.043,-0.0431,-0.0473,0,-0.0514,-0.0525,-0.0503,-0.052,-0.0522,-0.0493,-0.05,-0.0491,-0.0479,-0.0479,-0.0466,-0.0467,-0.0445,-0.0442,-0.045,-0.0436,-0.0456,-0.0433,-0.0436,-0.0436,-0.044,-0.0499,-0.0514,-0.0553,-0.0478,-0.0478,-0.0479,0,-0.0561,-0.0556,-0.0572,-0.0555,-0.0556,-0.0562,-0.0556,-0.0557,-0.0547,-0.0537,-0.0533,-0.0514,-0.0521,-0.0497,-0.0508,-0.0492,-0.0492,-0.0486,-0.0487,-0.0487,-0.046,-0.0501,-0.0565,-0.0572,-0.0487,-0.0486,-0.0486,0,-0.061,-0.0607,-0.0616,-0.0613,-0.0593,-0.0598,-0.0591,-0.0579,-0.0578,-0.0573,-0.0572,-0.0569,-0.0567,-0.0565,-0.0546,-0.053,-0.0559,-0.0533,-0.0552,-0.0553,-0.056,-0.056,-0.0626,-0.0559,-0.0559,-0.0559,-0.0559,0,-0.0656,-0.0668,-0.0638,-0.0644,-0.0657,-0.0632,-0.0646,-0.0635,-0.0625,-0.063,-0.0605,-0.0609,-0.0584,-0.0586,-0.0571,-0.0583,-0.0582,-0.0575,-0.0571,-0.0578,-0.0579,-0.0577,-0.0574,-0.0561,-0.056,-0.056,-0.056,0,-0.0713,-0.0693,-0.0702,-0.0683,-0.0679,-0.0689,-0.0673,-0.0678,-0.0665,-0.0671,-0.0671,-0.065,-0.0651,-0.0632,-0.063,-0.062,-0.0638,-0.0629,-0.0642,-0.0639,-0.066,-0.0658,-0.0728,-0.0736,-0.0664,-0.0665,-0.0665,0,-0.0744,-0.0752,-0.0734,-0.0735,-0.0728,-0.073,-0.0729,-0.0706,-0.0706,-0.0695,-0.0702,-0.0702,-0.07,-0.0704,-0.0689,-0.0687,-0.0678,-0.0703,-0.0678,-0.0685,-0.068,-0.068,-0.0681,-0.0708,-0.0709,-0.071,-0.071,0,-0.0801,-0.0791,-0.079,-0.0786,-0.0785,-0.0781,-0.0775,-0.0777,-0.0752,-0.0754,-0.0755,-0.0753,-0.0751,-0.0751,-0.0747,-0.074,-0.0722,-0.0718,-0.0723,-0.073,-0.0737,-0.0734,-0.0657,-0.0717,-0.0716,-0.0716,-0.0715,-0.0715,-0.0846,-0.0852,-0.0841,-0.0841,-0.0834,-0.083,-0.0834,-0.0821,-0.0822,-0.0818,-0.0804,-0.0808,-0.0799,-0.0791,-0.0786,-0.079,-0.0778,-0.0784,-0.0786,-0.0788,-0.0792,-0.0736,-0.0789,-0.0788,-0.0788,-0.0788,-0.0788,0,-0.0902,-0.0894,-0.0894,-0.0887,-0.0887,-0.0869,-0.0862,-0.0864,-0.0867,-0.086,-0.0859,-0.0861,-0.0861,-0.0847,-0.0846,-0.0851,-0.0843,-0.0852,-0.0851,-0.085,-0.0802,-0.0799,-0.0859,-0.0859,-0.0859,-0.0859,-0.0859,-0.0859,-0.0932,-0.0942,-0.0931,-0.0938,-0.093,-0.0933,-0.0931,-0.0927,-0.0921,-0.0924,-0.0924,-0.0915,-0.0905,-0.0903,-0.0903,-0.0899,-0.09,-0.0912,-0.0905,-0.086,-0.0854,-0.0847,-0.0844,-0.0912,-0.0912,-0.0953,-0.0953,-0.0954]}]]